Weather History for Roxboro, NC

Change the Weather History Date:

Friday, March 22, 2013

  Actual Average Record
Temperature  
Mean Temperature 34 °F -  
Max Temperature 50 °F 62 °F 84 °F (2011)
Min Temperature 19 °F 36 °F 18 °F (1986)
Degree Days  
Heating Degree Days 30    
Moisture  
Dew Point 14 °F    
Average Humidity 47    
Maximum Humidity 86    
Minimum Humidity 20    
Precipitation  
Precipitation 0.00 in - - ()
Sea Level Pressure  
Sea Level Pressure 30.01 in    
Wind  
Wind Speed 4 mph (West)    
Max Wind Speed 13 mph    
Max Gust Speed 20 mph    
Visibility 10 miles    
Events      
Averages and records for this station are not official NWS values.
T = Trace of Precipitation, MM = Missing Value Source: NWS Daily Summary

Daily Weather History Graph

Daily Weather History Graph

Search for Another Location

Airport:

Trip Planner

Search our weather history database for the weather conditions in past years. The results will help you decide how hot, cold, wet, or windy it might be!

Date:

Astronomy

Mar. 22, 2013 Rise Set
Actual Time 7:16 AM EDT 7:29 PM EDT
Civil Twilight 6:50 AM EDT 7:55 PM EDT
Nautical Twilight 6:20 AM EDT 8:25 PM EDT
Astronomical Twilight 5:50 AM EDT 8:56 PM EDT
Moon 3:02 PM EDT (3/22) 4:08 AM EDT (3/22)
Length of Visible Light 13h 04m
Length of Day
12h 13m
Waxing Gibbous, 77% of the Moon is Illuminated
Mar 22
Waxing Gibbous
Mar 27
Full
Apr 3
Last Quarter
Apr 10
New
Apr 18
First Quarter

Hourly Weather History & Observations

Time (EDT) Temp. Windchill Dew Point Humidity Pressure Visibility Wind Dir Wind Speed Gust Speed Precip Events Conditions
12:15 AM 30.2 °F 24.3 °F 12.2 °F 47% 29.99 in 10.0 mi WNW 5.8 mph - N/A   Clear
12:35 AM 30.2 °F 23.4 °F 12.2 °F 47% 29.99 in 10.0 mi WNW 6.9 mph - N/A   Clear
12:55 AM 30.2 °F 23.4 °F 12.2 °F 47% 30.00 in 10.0 mi NW 6.9 mph - N/A   Clear
1:15 AM 30.2 °F 24.3 °F 12.2 °F 47% 30.00 in 10.0 mi WNW 5.8 mph - N/A   Clear
1:35 AM 28.4 °F 22.2 °F 12.2 °F 51% 30.00 in 10.0 mi NW 5.8 mph - N/A   Clear
1:55 AM 28.4 °F - 12.2 °F 51% 30.01 in 10.0 mi Calm Calm - N/A   Clear
2:15 AM 28.4 °F 22.2 °F 12.2 °F 51% 30.00 in 10.0 mi NNW 5.8 mph - N/A   Clear
2:35 AM 28.4 °F 23.3 °F 14.0 °F 55% 30.00 in 10.0 mi NNW 4.6 mph - N/A   Clear
2:55 AM 28.4 °F - 12.2 °F 51% 30.00 in 10.0 mi Calm Calm - N/A   Clear
3:15 AM 26.6 °F 22.6 °F 12.2 °F 55% 29.99 in 10.0 mi North 3.5 mph - N/A   Clear
3:35 AM 26.6 °F - 14.0 °F 59% 29.98 in 10.0 mi Calm Calm - N/A   Clear
3:55 AM 24.8 °F - 14.0 °F 64% 29.99 in 10.0 mi Calm Calm - N/A   Clear
4:15 AM 23.0 °F - 14.0 °F 68% 29.99 in 10.0 mi Calm Calm - N/A   Clear
4:35 AM 24.8 °F - 14.0 °F 64% 29.99 in 10.0 mi Calm Calm - N/A   Clear
4:55 AM 23.0 °F - 14.0 °F 68% 30.00 in 10.0 mi Calm Calm - N/A   Clear
5:15 AM 21.2 °F - 14.0 °F 74% 30.00 in 10.0 mi Calm Calm - N/A   Clear
5:35 AM 21.2 °F - 14.0 °F 74% 30.00 in 10.0 mi Calm Calm - N/A   Clear
5:55 AM 19.4 °F 14.3 °F 14.0 °F 80% 30.01 in 10.0 mi South 3.5 mph - N/A   Clear
6:15 AM 21.2 °F 16.4 °F 17.6 °F 86% 30.03 in 10.0 mi SW 3.5 mph - N/A   Clear
6:35 AM 21.2 °F - 15.8 °F 80% 30.03 in 10.0 mi Calm Calm - N/A   Clear
6:55 AM 21.2 °F - 14.0 °F 74% 30.03 in 10.0 mi Calm Calm - N/A   Clear
7:15 AM 21.2 °F - 14.0 °F 74% 30.05 in 10.0 mi Calm Calm - N/A   Clear
7:35 AM 19.4 °F - 14.0 °F 80% 30.06 in 10.0 mi Calm Calm - N/A   Clear
7:55 AM 21.2 °F - 15.8 °F 80% 30.06 in 10.0 mi Calm Calm - N/A   Clear
8:15 AM 24.8 °F - 17.6 °F 74% 30.07 in 10.0 mi Calm Calm - N/A   Clear
8:35 AM 28.4 °F 24.6 °F 14.0 °F 55% 30.07 in 10.0 mi West 3.5 mph - N/A   Clear
8:55 AM 30.2 °F 26.7 °F 14.0 °F 51% 30.08 in 10.0 mi West 3.5 mph - N/A   Clear
9:15 AM 32.0 °F 28.7 °F 14.0 °F 48% 30.08 in 10.0 mi NW 3.5 mph - N/A   Clear
9:35 AM 32.0 °F 26.4 °F 12.2 °F 44% 30.07 in 10.0 mi WNW 5.8 mph - N/A   Clear
9:55 AM 32.0 °F 24.8 °F 12.2 °F 44% 30.07 in 10.0 mi WNW 8.1 mph - N/A   Clear
10:15 AM 33.8 °F 27.0 °F 12.2 °F 41% 30.07 in 10.0 mi NW 8.1 mph - N/A   Clear
10:35 AM 33.8 °F 27.7 °F 12.2 °F 41% 30.07 in 10.0 mi West 6.9 mph - N/A   Clear
10:55 AM 33.8 °F 27.0 °F 12.2 °F 41% 30.07 in 10.0 mi NW 8.1 mph - N/A   Clear
11:15 AM 35.6 °F 29.9 °F 12.2 °F 38% 30.06 in 10.0 mi NW 6.9 mph - N/A   Clear
11:35 AM 37.4 °F - 12.2 °F 36% 30.06 in 10.0 mi Calm Calm - N/A   Clear
11:55 AM 37.4 °F 32.8 °F 10.4 °F 33% 30.06 in 10.0 mi West 5.8 mph - N/A   Clear
12:15 PM 39.2 °F 37.0 °F 10.4 °F 31% 30.05 in 10.0 mi WSW 3.5 mph - N/A   Clear
12:35 PM 41.0 °F - 10.4 °F 29% 30.05 in 10.0 mi Calm Calm - N/A   Clear
12:55 PM 42.8 °F 39.3 °F 12.2 °F 29% 30.04 in 10.0 mi NW 5.8 mph - N/A   Clear
1:15 PM 42.8 °F 39.3 °F 10.4 °F 27% 30.03 in 10.0 mi West 5.8 mph - N/A   Clear
1:35 PM 42.8 °F 39.3 °F 10.4 °F 27% 30.02 in 10.0 mi West 5.8 mph - N/A   Clear
1:55 PM 44.6 °F 39.7 °F 10.4 °F 25% 30.01 in 10.0 mi West 9.2 mph 16.1 mph N/A   Clear
2:15 PM 44.6 °F 38.8 °F 12.2 °F 27% 30.00 in 10.0 mi West 11.5 mph 16.1 mph N/A   Clear
2:35 PM 44.6 °F - 10.4 °F 25% 29.99 in 10.0 mi Calm Calm - N/A   Clear
2:55 PM 46.4 °F 42.4 °F 10.4 °F 23% 29.98 in 10.0 mi WNW 8.1 mph - N/A   Clear
3:15 PM 46.4 °F 41.5 °F 10.4 °F 23% 29.97 in 10.0 mi NW 10.4 mph - N/A   Clear
3:35 PM 46.4 °F - 10.4 °F 23% 29.97 in 10.0 mi Calm Calm - N/A   Clear
3:55 PM 48.2 °F - 12.2 °F 24% 29.97 in 10.0 mi WSW 12.7 mph 17.3 mph N/A   Clear
4:15 PM 50.0 °F - 12.2 °F 22% 29.96 in 10.0 mi West 10.4 mph - N/A   Clear
4:35 PM 50.0 °F - 12.2 °F 22% 29.97 in 10.0 mi WSW 11.5 mph 19.6 mph N/A   Clear
4:55 PM 50.0 °F - 10.4 °F 20% 29.97 in 10.0 mi WSW 10.4 mph - N/A   Clear
5:15 PM 48.2 °F - 12.2 °F 24% 29.97 in 10.0 mi SW 10.4 mph - N/A   Clear
5:35 PM 46.4 °F 41.9 °F 12.2 °F 25% 29.97 in 10.0 mi WSW 9.2 mph - N/A   Clear
5:55 PM 46.4 °F 42.4 °F 10.4 °F 23% 29.97 in 10.0 mi West 8.1 mph - N/A   Clear
6:15 PM 46.4 °F 41.9 °F 10.4 °F 23% 29.97 in 10.0 mi West 9.2 mph - N/A   Clear
6:35 PM 46.4 °F 44.3 °F 10.4 °F 23% 29.97 in 10.0 mi WSW 4.6 mph - N/A   Clear
6:55 PM 46.4 °F 45.2 °F 12.2 °F 25% 29.98 in 10.0 mi WSW 3.5 mph - N/A   Clear
7:15 PM 46.4 °F 45.2 °F 12.2 °F 25% 29.98 in 10.0 mi SW 3.5 mph - N/A   Clear
7:35 PM 44.6 °F - 12.2 °F 27% 29.98 in 10.0 mi Calm Calm - N/A   Clear
7:55 PM 42.8 °F - 15.8 °F 34% 29.98 in 10.0 mi Calm Calm - N/A   Clear
8:15 PM 39.2 °F - 19.4 °F 45% 29.98 in 10.0 mi Calm Calm - N/A   Clear
8:35 PM 39.2 °F - 21.2 °F 49% 29.99 in 10.0 mi Calm Calm - N/A   Clear
8:55 PM 37.4 °F - 21.2 °F 52% 29.99 in 10.0 mi Calm Calm - N/A   Clear
9:15 PM 37.4 °F - 23.0 °F 56% 30.00 in 10.0 mi Calm Calm - N/A   Clear
9:35 PM 35.6 °F - 23.0 °F 60% 30.00 in 10.0 mi Calm Calm - N/A   Clear
9:55 PM 35.6 °F - 21.2 °F 56% 30.00 in 10.0 mi Calm Calm - N/A   Clear
10:15 PM 33.8 °F - 23.0 °F 65% 30.01 in 10.0 mi Calm Calm - N/A   Clear
10:35 PM 32.0 °F - 23.0 °F 69% 30.01 in 10.0 mi Calm Calm - N/A   Clear
10:55 PM 32.0 °F - 24.8 °F 75% 30.01 in 10.0 mi Calm Calm - N/A   Clear
11:15 PM 32.0 °F - 23.0 °F 69% 30.02 in 10.0 mi Calm Calm - N/A   Clear
11:35 PM 32.0 °F - 23.0 °F 69% 30.01 in 10.0 mi Calm Calm - N/A   Clear
11:55 PM 32.0 °F - 23.0 °F 69% 30.01 in 10.0 mi Calm Calm - N/A   Clear